Location: *
(46.3500°N, 10.9000°E)
Time: 11:42:59
(UTC+00:00)

Vanguard 2 - Pass Details

Date: 02 December 2021
Orbit: 553 x 2936 km, 32.9° (Epoch: 19 January)

Event Time Altitude Azimuth Distance (km) Brightness Sun altitude
Rises 19:49:59 0° 257° (WSW) 4,996 12.3 -43.7°
Reaches altitude 10° 19:57:34 10° 224° (SW) 4,681 11.7 -45.0°
Maximum altitude 20:00:00 11° 213° (SSW) 4,810 11.7 -45.4°
Drops below altitude 10° 20:02:36 10° 202° (SSW) 5,049 11.7 -45.8°
Enters shadow 20:11:00 - 176° (S) 6,272 12.0 -47.2°
